Location: Unspecified
(0.0000°N, 0.0000°E)
Time: 20:37:41

Envisat - Pass Details

Date: 09 March 2018
Orbit: 764 x 766 km, 98.2° (Epoch: 21 March)

Event Time Altitude Azimuth Distance (km) Brightness Sun altitude
Rises 20:26:11 0° 185° (S) 3,231 6.3 -33.8°
Enters shadow 20:28:27 - 192° (SSW) 2,379 5.7 -34.4°
Exits shadow 20:35:29 24° 303° (WNW) 1,560 4.9 -36.1°
Drops below altitude 10° 20:37:47 10° 322° (NW) 2,293 5.8 -36.7°
Sets 20:40:16 0° 331° (NNW) 3,216 6.5 -37.3°
